Location: Ravencliff
(37.6982°N, 81.4812°W)
Time: 23:22:46
(UTC+00:00)

ARIANE 6 FM1 Upper Stage - Visible Passes

Search period start: 16 April 2026 00:00
Search period end: 26 April 2026 00:00
Orbit: 525 x 604 km, 62.0° (Epoch: 16 April)

Date Brightness Start Highest point End Pass type
(mag) Time Alt. Az. Time Alt. Az. Time Alt. Az.
16 Apr 5.6 00:40:43 10° WNW 00:43:02 14° NW 00:45:19 10° N visible
17 Apr 6.0 00:42:01 10° NW 00:42:51 10° NW 00:43:41 10° NNW visible
25 Apr 5.8 04:02:44 10° N 04:02:45 10° N 04:02:45 10° N visible
